When you browse on this site, cookies collect data to enhance your experience and personalize the content and advertising you see.
Visit our Privacy Policy to learn more. By continuing to use the site, you agree to this use of cookies and data.
  • In Hungary
  • List of Countries
  • For 7 days
  • Water Temperature
  • Weather Map
  • News
  • Weather Widgets
  • user-avatar
    Login

    Hourly Weather Lago Enriquillo

    Today, 13 November, Wednesday

    Time Temperature Precipitation Wind Pressure Humidity
    00:00 +24°C° 0 mm 0 mps 762 mmHg 90%
    01:00 +24°C° 0 mm 0 mps 762 mmHg 90%
    02:00 +23°C° 0 mm 0 mps 762 mmHg 90%
    03:00 +23°C° 0 mm 0 mps 762 mmHg 90%
    04:00 +23°C° 0 mm 0 mps 762 mmHg 90%
    05:00 +24°C° 0 mm 0 mps 762 mmHg 87%
    06:00 +25°C° 0 mm 0 mps 762 mmHg 85%
    07:00 +25°C° 0 mm 0 mps 763 mmHg 83%
    08:00 +29°C° 0 mm 1 mps 763 mmHg 76%
    09:00 +31°C° 0 mm 1 mps 763 mmHg 69%
    10:00 +34°C° 0 mm 2 mps 763 mmHg 62%
    11:00 +34°C° 0.3 mm 2 mps 763 mmHg 60%
    12:00 +35°C° 0.3 mm 2 mps 762 mmHg 58%
    13:00 +35°C° 0.3 mm 2 mps 761 mmHg 56%
    14:00 +35°C° 0.5 mm 2 mps 761 mmHg 60%
    15:00 +34°C° 0.5 mm 2 mps 761 mmHg 64%
    16:00 +32°C° 0.5 mm 2 mps 761 mmHg 68%
    17:00 +30°C° 0.4 mm 1 mps 762 mmHg 75%
    18:00 +29°C° 0.4 mm 1 mps 762 mmHg 83%
    19:00 +25°C° 0.4 mm 0 mps 763 mmHg 90%
    20:00 +25°C° 0 mm 0 mps 763 mmHg 90%
    21:00 +25°C° 0 mm 0 mps 763 mmHg 90%
    22:00 +25°C° 0 mm 0 mps 763 mmHg 90%
    23:00 +24°C° 0 mm 0 mps 763 mmHg 90%

    Tomorrow, 14 November, Thursday

    Time Temperature Precipitation Wind Pressure Humidity
    00:00 +24°C° 0 mm 0 mps 763 mmHg 91%
    01:00 +24°C° 0 mm 0 mps 763 mmHg 91%
    02:00 +24°C° 0 mm 0 mps 763 mmHg 92%
    03:00 +24°C° 0 mm 0 mps 763 mmHg 92%
    04:00 +23°C° 0 mm 0 mps 763 mmHg 92%
    05:00 +24°C° 0 mm 0 mps 763 mmHg 90%
    06:00 +25°C° 0 mm 0 mps 763 mmHg 88%
    07:00 +25°C° 0 mm 0 mps 764 mmHg 86%
    08:00 +27°C° 0 mm 0 mps 764 mmHg 79%
    09:00 +31°C° 0 mm 1 mps 764 mmHg 72%
    10:00 +32°C° 0 mm 1 mps 765 mmHg 65%
    11:00 +33°C° 0.1 mm 1 mps 764 mmHg 60%
    12:00 +34°C° 0.1 mm 1 mps 763 mmHg 55%
    13:00 +36°C° 0.1 mm 2 mps 763 mmHg 50%
    14:00 +35°C° 0.1 mm 2 mps 762 mmHg 54%
    15:00 +34°C° 0.1 mm 2 mps 762 mmHg 57%
    16:00 +34°C° 0.1 mm 2 mps 762 mmHg 61%
    17:00 +31°C° 0.1 mm 2 mps 763 mmHg 69%
    18:00 +29°C° 0.1 mm 1 mps 763 mmHg 78%
    19:00 +25°C° 0.1 mm 0 mps 764 mmHg 86%
    20:00 +25°C° 0 mm 0 mps 764 mmHg 87%
    21:00 +24°C° 0 mm 0 mps 764 mmHg 87%
    22:00 +24°C° 0 mm 0 mps 764 mmHg 87%
    23:00 +24°C° 0 mm 0 mps 764 mmHg 88%

    Day after tomorrow, 15 November, Friday

    Time Temperature Precipitation Wind Pressure Humidity
    00:00 +24°C° 0 mm 0 mps 764 mmHg 88%
    01:00 +24°C° 0 mm 0 mps 764 mmHg 88%
    02:00 +24°C° 0 mm 0 mps 763 mmHg 88%
    03:00 +23°C° 0 mm 0 mps 763 mmHg 88%
    04:00 +23°C° 0 mm 0 mps 763 mmHg 89%
    05:00 +24°C° 0 mm 0 mps 764 mmHg 87%
    06:00 +25°C° 0 mm 0 mps 764 mmHg 84%
    07:00 +25°C° 0 mm 0 mps 764 mmHg 81%
    08:00 +27°C° 0 mm 0 mps 764 mmHg 74%
    09:00 +29°C° 0 mm 0 mps 764 mmHg 67%
    10:00 +33°C° 0 mm 1 mps 764 mmHg 59%
    11:00 +34°C° 0 mm 1 mps 763 mmHg 56%
    12:00 +34°C° 0 mm 1 mps 763 mmHg 52%
    13:00 +35°C° 0 mm 1 mps 762 mmHg 48%
    14:00 +35°C° 0.1 mm 2 mps 762 mmHg 53%
    15:00 +34°C° 0.1 mm 2 mps 761 mmHg 57%
    16:00 +34°C° 0.1 mm 3 mps 761 mmHg 62%
    17:00 +31°C° 0.1 mm 2 mps 762 mmHg 70%
    18:00 +29°C° 0.1 mm 1 mps 762 mmHg 79%
    19:00 +27°C° 0.1 mm 1 mps 762 mmHg 88%
    20:00 +27°C° 0 mm 1 mps 763 mmHg 88%
    21:00 +27°C° 0 mm 1 mps 763 mmHg 87%
    22:00 +26°C° 0 mm 1 mps 763 mmHg 87%
    23:00 +26°C° 0 mm 1 mps 762 mmHg 87%

    16 November, Saturday

    Time Temperature Precipitation Wind Pressure Humidity
    00:00 +26°C° 0 mm 1 mps 762 mmHg 88%
    01:00 +24°C° 0 mm 0 mps 762 mmHg 88%
    02:00 +24°C° 0 mm 0 mps 761 mmHg 88%
    03:00 +24°C° 0 mm 0 mps 761 mmHg 88%
    04:00 +24°C° 0 mm 0 mps 761 mmHg 88%
    05:00 +24°C° 0 mm 0 mps 761 mmHg 86%
    06:00 +25°C° 0 mm 0 mps 762 mmHg 83%
    07:00 +26°C° 0 mm 0 mps 762 mmHg 81%
    08:00 +27°C° 0 mm 0 mps 762 mmHg 75%
    09:00 +31°C° 0 mm 1 mps 762 mmHg 70%
    10:00 +33°C° 0 mm 1 mps 762 mmHg 64%
    11:00 +33°C° 0.3 mm 1 mps 761 mmHg 64%
    12:00 +33°C° 0.3 mm 1 mps 761 mmHg 63%
    13:00 +34°C° 0.3 mm 2 mps 760 mmHg 63%
    14:00 +34°C° 0.2 mm 2 mps 760 mmHg 66%
    15:00 +32°C° 0.2 mm 2 mps 759 mmHg 70%
    16:00 +31°C° 0.2 mm 2 mps 759 mmHg 73%
    17:00 +30°C° 0.1 mm 1 mps 760 mmHg 78%
    18:00 +29°C° 0.1 mm 1 mps 760 mmHg 83%
    19:00 +27°C° 0.1 mm 1 mps 761 mmHg 88%
    20:00 +25°C° 0 mm 0 mps 761 mmHg 88%
    21:00 +25°C° 0 mm 0 mps 761 mmHg 88%
    22:00 +25°C° 0 mm 0 mps 761 mmHg 88%
    23:00 +24°C° 0 mm 0 mps 761 mmHg 89%

    17 November, Sunday

    Time Temperature Precipitation Wind Pressure Humidity
    00:00 +24°C° 0 mm 0 mps 760 mmHg 90%
    01:00 +24°C° 0 mm 0 mps 760 mmHg 90%
    02:00 +24°C° 0 mm 0 mps 760 mmHg 90%
    03:00 +24°C° 0 mm 0 mps 760 mmHg 91%
    04:00 +23°C° 0 mm 0 mps 760 mmHg 91%
    05:00 +24°C° 0 mm 0 mps 760 mmHg 88%
    06:00 +25°C° 0 mm 0 mps 761 mmHg 86%
    07:00 +25°C° 0 mm 0 mps 761 mmHg 84%
    08:00 +27°C° 0 mm 0 mps 761 mmHg 78%
    09:00 +29°C° 0 mm 0 mps 761 mmHg 72%
    10:00 +30°C° 0 mm 0 mps 761 mmHg 65%
    11:00 +33°C° 0.1 mm 1 mps 761 mmHg 64%
    12:00 +33°C° 0.1 mm 1 mps 760 mmHg 62%
    13:00 +34°C° 0.1 mm 1 mps 759 mmHg 60%
    14:00 +33°C° 0.2 mm 1 mps 759 mmHg 62%
    15:00 +33°C° 0.2 mm 1 mps 759 mmHg 65%
    16:00 +32°C° 0.2 mm 2 mps 759 mmHg 68%
    17:00 +31°C° 0.1 mm 1 mps 759 mmHg 75%
    18:00 +29°C° 0.1 mm 1 mps 760 mmHg 82%
    19:00 +26°C° 0.1 mm 0 mps 760 mmHg 89%
    20:00 +25°C° 0.1 mm 0 mps 760 mmHg 90%
    21:00 +25°C° 0.1 mm 0 mps 761 mmHg 91%
    22:00 +25°C° 0.1 mm 0 mps 761 mmHg 92%
    23:00 +24°C° 0.1 mm 0 mps 761 mmHg 92%

    18 November, Monday

    Time Temperature Precipitation Wind Pressure Humidity
    00:00 +24°C° 0.1 mm 0 mps 760 mmHg 92%
    01:00 +24°C° 0.1 mm 0 mps 760 mmHg 93%
    02:00 +24°C° 0 mm 0 mps 760 mmHg 93%
    03:00 +23°C° 0 mm 0 mps 760 mmHg 93%
    04:00 +23°C° 0 mm 0 mps 760 mmHg 93%
    05:00 +24°C° 0 mm 0 mps 761 mmHg 90%
    06:00 +25°C° 0 mm 0 mps 761 mmHg 87%
    07:00 +25°C° 0 mm 0 mps 762 mmHg 84%
    08:00 +27°C° 0 mm 0 mps 762 mmHg 77%
    09:00 +31°C° 0 mm 1 mps 762 mmHg 70%
    10:00 +33°C° 0 mm 1 mps 762 mmHg 63%
    11:00 +33°C° 0.1 mm 1 mps 761 mmHg 61%
    12:00 +34°C° 0.1 mm 1 mps 761 mmHg 59%
    13:00 +34°C° 0.1 mm 1 mps 760 mmHg 57%
    14:00 +33°C° 0.3 mm 1 mps 760 mmHg 61%
    15:00 +34°C° 0.3 mm 2 mps 760 mmHg 65%
    16:00 +32°C° 0.3 mm 2 mps 759 mmHg 69%
    17:00 +30°C° 0.1 mm 1 mps 760 mmHg 75%
    18:00 +29°C° 0.1 mm 1 mps 761 mmHg 81%
    19:00 +25°C° 0.1 mm 0 mps 761 mmHg 87%
    20:00 +25°C° 0 mm 0 mps 761 mmHg 89%
    21:00 +24°C° 0 mm 0 mps 761 mmHg 90%
    22:00 +24°C° 0 mm 0 mps 762 mmHg 91%
    23:00 +24°C° 0 mm 0 mps 762 mmHg 92%
    Show more